TimeCDT,TemperatureF,Dew PointF,Humidity,Sea Level PressureIn,VisibilityMPH,Wind Direction,Wind SpeedMPH,Gust SpeedMPH,PrecipitationIn,Events,Conditions,WindDirDegrees,DateUTC
12:54 AM,77.0,68.0,74,29.84,10.0,South,10.4,-,N/A,,Clear,190,2013-09-19 05:54:00
1:54 AM,77.0,66.9,71,29.84,10.0,South,9.2,-,N/A,,Clear,190,2013-09-19 06:54:00
2:54 AM,78.1,66.0,66,29.83,10.0,SSW,15.0,-,N/A,,Clear,200,2013-09-19 07:54:00
3:54 AM,78.1,64.9,64,29.83,10.0,SSW,10.4,19.6,N/A,,Clear,200,2013-09-19 08:54:00
4:54 AM,75.9,66.0,71,29.83,10.0,SSW,6.9,-,N/A,,Clear,200,2013-09-19 09:54:00
5:54 AM,75.9,66.0,71,29.84,10.0,South,9.2,16.1,N/A,,Clear,190,2013-09-19 10:54:00
6:54 AM,75.0,66.0,73,29.84,10.0,SSW,5.8,-,N/A,,Partly Cloudy,210,2013-09-19 11:54:00
7:54 AM,75.9,66.9,74,29.84,8.0,Variable,6.9,-,N/A,,Clear,0,2013-09-19 12:54:00
8:54 AM,79.0,66.9,66,29.83,7.0,SW,10.4,18.4,N/A,,Clear,220,2013-09-19 13:54:00
9:54 AM,82.0,66.9,60,29.86,8.0,SW,13.8,19.6,N/A,,Clear,220,2013-09-19 14:54:00
10:54 AM,86.0,68.0,55,29.86,10.0,SSW,11.5,19.6,N/A,,Clear,210,2013-09-19 15:54:00
11:54 AM,89.1,68.0,50,29.85,10.0,South,16.1,24.2,N/A,,Clear,190,2013-09-19 16:54:00
12:54 PM,91.0,66.9,45,29.83,10.0,SSW,15.0,23.0,N/A,,Clear,200,2013-09-19 17:54:00
1:54 PM,93.0,66.0,41,29.80,10.0,SSW,18.4,25.3,N/A,,Clear,200,2013-09-19 18:54:00
2:54 PM,93.0,64.0,38,29.76,10.0,South,18.4,27.6,N/A,,Clear,190,2013-09-19 19:54:00
3:54 PM,93.0,64.0,38,29.73,10.0,South,19.6,28.8,N/A,,Partly Cloudy,190,2013-09-19 20:54:00
4:54 PM,91.0,66.0,44,29.72,10.0,SSW,19.6,28.8,N/A,,Mostly Cloudy,200,2013-09-19 21:54:00
5:54 PM,89.1,66.0,46,29.71,10.0,SSW,17.3,26.5,N/A,,Scattered Clouds,200,2013-09-19 22:54:00
6:01 PM,89.6,66.2,46,29.74,10.0,South,16.1,26.5,N/A,Thunderstorm,Scattered Clouds,190,2013-09-19 23:01:00
6:29 PM,75.2,69.8,83,29.86,1.2,SSW,11.5,25.3,0.29,Rain-Thunderstorm,Light Thunderstorms and Rain,210,2013-09-19 23:29:00
6:36 PM,75.2,66.2,73,29.85,0.5,WNW,11.5,24.2,0.45,Rain-Thunderstorm,Heavy Thunderstorms and Rain,300,2013-09-19 23:36:00
6:38 PM,73.4,68.0,83,29.84,0.8,NNW,11.5,21.9,0.54,Rain-Thunderstorm,Heavy Thunderstorms and Rain,340,2013-09-19 23:38:00
6:49 PM,71.6,69.8,94,29.85,0.2,NNW,8.1,24.2,1.19,Fog-Rain-Thunderstorm,Heavy Thunderstorms and Rain,330,2013-09-19 23:49:00
6:54 PM,72.0,69.1,91,29.81,0.5,NW,10.4,18.4,1.40,Fog-Rain-Thunderstorm,Heavy Thunderstorms and Rain,310,2013-09-19 23:54:00
7:02 PM,71.6,68.0,88,29.81,0.8,NNW,10.4,19.6,0.26,Rain-Thunderstorm,Heavy Thunderstorms and Rain,330,2013-09-20 00:02:00
7:12 PM,71.6,68.0,88,29.86,1.0,SW,11.5,-,0.46,Rain-Thunderstorm,Heavy Thunderstorms and Rain,230,2013-09-20 00:12:00
7:20 PM,71.6,68.0,88,29.84,0.5,WNW,8.1,-,0.70,Fog-Rain-Thunderstorm,Heavy Thunderstorms and Rain,300,2013-09-20 00:20:00
7:31 PM,71.6,68.0,88,29.85,0.8,West,8.1,-,0.90,Rain-Thunderstorm,Heavy Thunderstorms and Rain,260,2013-09-20 00:31:00
7:38 PM,71.6,68.0,88,29.85,1.8,West,5.8,-,0.92,Rain-Thunderstorm,Thunderstorms and Rain,280,2013-09-20 00:38:00
7:40 PM,71.6,68.0,88,29.86,3.0,WNW,4.6,-,0.92,Rain-Thunderstorm,Thunderstorms and Rain,290,2013-09-20 00:40:00
7:46 PM,71.6,68.0,88,29.86,4.0,Calm,Calm,-,0.93,Rain-Thunderstorm,Light Thunderstorms and Rain,0,2013-09-20 00:46:00
7:54 PM,71.1,68.0,90,29.87,4.0,SSW,9.2,-,0.95,Rain-Thunderstorm,Rain,200,2013-09-20 00:54:00
8:01 PM,71.6,68.0,88,29.90,4.0,WSW,8.1,-,0.01,Rain-Thunderstorm,Rain,240,2013-09-20 01:01:00
8:45 PM,73.4,66.2,78,29.91,2.5,WNW,8.1,-,0.10,Rain-Thunderstorm,Rain,290,2013-09-20 01:45:00
8:54 PM,75.0,66.9,76,29.90,2.5,NW,9.2,-,0.16,Rain-Thunderstorm,Heavy Rain,320,2013-09-20 01:54:00
9:03 PM,69.8,66.2,88,29.93,1.5,NNW,8.1,-,0.09,Rain-Thunderstorm,Heavy Rain,330,2013-09-20 02:03:00
9:10 PM,69.8,66.2,88,29.93,1.8,NNW,4.6,-,0.14,Rain-Thunderstorm,Heavy Rain,340,2013-09-20 02:10:00
9:16 PM,69.8,66.2,88,29.92,3.0,NNE,3.5,-,0.17,Rain-Thunderstorm,Rain,30,2013-09-20 02:16:00
9:29 PM,68.0,66.2,94,29.88,1.8,ENE,9.2,-,0.28,Rain-Thunderstorm,Heavy Rain,70,2013-09-20 02:29:00
9:38 PM,69.8,66.2,88,29.92,3.0,WNW,3.5,-,0.30,Rain-Thunderstorm,Light Rain,290,2013-09-20 02:38:00
9:49 PM,69.8,66.2,88,29.91,2.0,Calm,Calm,-,0.36,Rain-Thunderstorm,Rain,0,2013-09-20 02:49:00
9:54 PM,70.0,66.0,87,29.91,2.5,WSW,4.6,-,0.38,Rain,Rain,240,2013-09-20 02:54:00
10:01 PM,69.8,66.2,88,29.94,5.0,WSW,5.8,-,0.00,Rain-Thunderstorm,Light Rain,250,2013-09-20 03:01:00
10:25 PM,69.8,66.2,88,29.92,10.0,SW,4.6,-,0.01,Rain,Light Rain,220,2013-09-20 03:25:00
10:51 PM,69.8,66.2,88,29.90,7.0,Calm,Calm,-,0.02,Rain,Light Rain,0,2013-09-20 03:51:00
10:54 PM,69.1,66.0,90,29.88,8.0,Calm,Calm,-,0.02,Rain,Light Rain,0,2013-09-20 03:54:00
11:08 PM,69.8,66.2,88,29.91,10.0,Calm,Calm,-,0.00,,Mostly Cloudy,0,2013-09-20 04:08:00
11:18 PM,69.8,66.2,88,29.90,10.0,Calm,Calm,-,0.00,,Mostly Cloudy,0,2013-09-20 04:18:00
11:25 PM,69.8,64.4,83,29.91,10.0,WSW,6.9,-,0.00,,Mostly Cloudy,250,2013-09-20 04:25:00
11:54 PM,77.0,64.9,66,29.89,10.0,WSW,3.5,-,0.00,,Mostly Cloudy,250,2013-09-20 04:54:00